Weather Roundup
Issued by NWS

Home | Current Version | Previous Version | Text Only | Print | Product List | Glossary On
Versions: 1 2 3 4 5 6 7 8 9 10 11 12 13 14 15 16 17 18 19 20 21 22 23 24 25 26 27 28 29 30 31 32 33 34 35 36 37 38 39 40 41 42 43 44 45 46 47 48 49 50
000
NZUS93 KARX 280310
HRRWXR

CURRENT HOURLY OBSERVATIONS ACROSS
MUCH OF THE UPPER MISSISSIPPI VALLEY
NATIONAL WEATHER SERVICE LA CROSSE WI
1000 PM CDT MON APR 27 2015


...SOUTHEAST MINNESOTA...


CITY           SKY/WX    TMP DP  RH WIND       PRES   REMARKS
ROCHESTER      CLEAR     53  30  41 NW8       30.16R
ROCHESTER/MAYO FAIR      57  30  35 NW5       30.15R
WINONA         CLEAR     54  41  62 CALM      30.12S
AUSTIN         CLEAR     52  34  50 CALM      30.15R
ALBERT LEA     FAIR      54  30  40 N3        30.16R
DODGE CENTER   PTCLDY    55  27  33 N3        30.15S
PRESTON        CLEAR     53  31  42 N5        30.14S
OWATONNA       CLEAR     52  28  40 CALM      30.16R
FARIBAULT      CLEAR     48  30  49 CALM      30.16R
$$

...ELSEWHERE IN MINNESOTA...


CITY           SKY/WX    TMP DP  RH WIND       PRES   REMARKS
MINNEAPOLIS    MOCLDY    60  27  28 CALM      30.14S
INTNL FALLS    PTCLDY    45  33  63 CALM      30.14R
DULUTH         PTCLDY    49  27  42 E7        30.15R
RED WING       CLEAR     48  32  53 NW3       30.13R
REDWOOD FALLS  MOCLDY    59  21  23 CALM      30.16R
MANKATO        PTCLDY    57  28  33 CALM      30.16R
WORTHINGTON    PTCLDY    48  23  37 NW3       30.18R
FAIRMONT       PTCLDY    52  25  35 CALM      30.16R
$$

...SOUTHWEST WISCONSIN...


CITY           SKY/WX    TMP DP  RH WIND       PRES   REMARKS
LA CROSSE      CLEAR     53  36  52 N3        30.10R
PRAIRIE DU CHI CLEAR     50  36  59 CALM      30.11R
BOSCOBEL       CLEAR     50  34  54 CALM      30.11R
LONE ROCK      CLEAR     49  37  63 W5        30.09S
PLATTEVILLE    CLEAR     55  33  43 NW3       30.10S
FORT MC COY    CLEAR     43  33  67 E3        30.12R
CAMP DOUGLAS   CLEAR     45  36  70 W3        30.09R
VIROQUA        FAIR      54  31  42 CALM      30.11R
WIS DELLS      CLEAR     49  31  50 CALM      30.09R
$$

...ELSEWHERE IN WISCONSIN...


CITY           SKY/WX    TMP DP  RH WIND       PRES   REMARKS
MILWAUKEE      CLEAR     41  31  67 N3        30.14S
MADISON        CLEAR     53  36  52 SE5       30.10R
GREEN BAY      CLEAR     45  33  63 E3        30.15R
EAU CLAIRE     CLEAR     56  29  35 NE5       30.13R
BLACK RVR FLS  FAIR      43  30  59 N3        30.11R
MEDFORD        CLEAR     48  29  48 NE5       30.14S
WAUSAU         CLEAR     54  26  34 N7        30.11R
WIS RAPIDS     CLEAR     54  26  34 N7        30.12R
MARSHFIELD     CLEAR     57  28  33 N10       30.12R
RICE LAKE      CLEAR     50  34  54 CALM      30.16R
$$

...NORTHEAST IOWA...


CITY           SKY/WX    TMP DP  RH WIND       PRES   REMARKS
DECORAH        FAIR      54  32  43 CALM      30.11S
MASON CITY     CLEAR     50  33  52 N8        30.16R
CHARLES CITY   CLEAR     52  34  50 NW6       30.15R
OELWEIN        CLEAR     55  34  44 N3        30.14R
$$

...ELSEWHERE IN IOWA...


CITY           SKY/WX    TMP DP  RH WIND       PRES   REMARKS
DES MOINES     CLEAR     59  32  36 E3        30.14R
IOWA CITY      CLEAR     49  37  63 CALM      30.13R
FORT DODGE     CLEAR     48  34  57 MISG      30.16S
$$

...NORTHERN ILLINOIS...


CITY           SKY/WX    TMP DP  RH WIND       PRES   REMARKS
CHICAGO-OHARE  PTCLDY    43  32  65 NE6       30.13R
CHICAGO-MIDWAY CLEAR     46  33  60 NE6       30.13R
MOLINE         CLEAR     49  39  68 CALM      30.10R
ROCKFORD       CLEAR     49  36  61 SE7       30.14R
PEORIA         CLEAR     54  38  54 E12       30.12R
$$

NOTE: "FAIR" INDICATES FEW OR NO CLOUDS BELOW 12,000 FEET WITH NO
SIGNIFICANT WEATHER AND/OR OBSTRUCTIONS TO VISIBILITY. WIND
SPEEDS ARE IN MILES-PER-HOUR.



USA.gov is the U.S. government's official web portal to all federal, state and local government web resources and services.